Wasilla, AK

4:15 PM AKDT on May 20, 2018 (GMT -0800)
Wasilla

Weather History for PAWS - July, 2013

Change the Weather History Date:

Monday, July 8, 2013

  Actual Average Record
Temperature  
Mean Temperature 52 °F -  
Max Temperature 57 °F 69 °F 82 °F (2003)
Min Temperature 48 °F 48 °F 38 °F (1977)
Degree Days  
Heating Degree Days 12    
Growing Degree Days 2 (Base 50)    
Moisture  
Dew Point 45 °F    
Average Humidity 78    
Maximum Humidity 87    
Minimum Humidity 55    
Precipitation  
Precipitation 0.03 in - - ()
Sea Level Pressure  
Sea Level Pressure 29.76 in    
Wind  
Wind Speed 2 mph (SSE)    
Max Wind Speed 7 mph    
Max Gust Speed -    
Visibility 10 miles    
Events      
Averages and records for this station are not official NWS values.
T = Trace of Precipitation, MM = Missing Value Source: NWS Daily Summary

Daily Weather History Graph

Daily Weather History Graph

Search for Another Location

Airport or City:

Astronomy

Jul. 08, 2013 Rise Set
Actual Time 4:32 AM AKDT 11:32 PM AKDT
Civil Twilight 2:06 AM AKDT 1:41 AM AKDT
Nautical Twilight Sun does not set Sun does not set
Astronomical Twilight Sun does not set Sun does not set
Moon 5:51 AM AKDT (7/8) 10:50 PM AKDT (7/8)
Length of Visible Light 23h 34m
Length of Day
18h 59m
New Moon, 0% of the Moon is Illuminated
Jul 8
New Moon
Jul 15
First Quarter
Jul 22
Full
Jul 29
Last Quarter
Aug 6
New

Hourly Weather History & Observations

Time (AKDT) Temp. Dew Point Humidity Pressure Visibility Wind Dir Wind Speed Gust Speed Precip Events Conditions
12:16 AM 51.8 °F 46.4 °F 82% 29.68 in 10.0 mi Calm Calm - 0.01 in   Overcast
12:36 AM 50.0 °F 46.4 °F 87% 29.68 in 10.0 mi SW 3.5 mph - 0.01 in   Overcast
12:56 AM 50.0 °F 44.6 °F 82% 29.68 in 10.0 mi WSW 3.5 mph - 0.01 in   Overcast
1:16 AM 48.2 °F 44.6 °F 87% 29.69 in 10.0 mi Calm Calm - N/A   Overcast
1:36 AM 50.0 °F 44.6 °F 82% 29.69 in 10.0 mi Calm Calm - N/A   Overcast
1:56 AM 48.2 °F 44.6 °F 87% 29.69 in 10.0 mi Calm Calm - N/A   Overcast
2:16 AM 48.2 °F 44.6 °F 87% 29.69 in 10.0 mi Calm Calm - N/A   Overcast
2:36 AM 48.2 °F 44.6 °F 87% 29.69 in 10.0 mi NNW 3.5 mph - N/A   Overcast
2:56 AM 48.2 °F 44.6 °F 87% 29.69 in 10.0 mi Calm Calm - N/A   Overcast
3:16 AM 48.2 °F 44.6 °F 87% 29.70 in 10.0 mi Calm Calm - N/A   Overcast
3:36 AM 48.2 °F 44.6 °F 87% 29.70 in 2.5 mi Calm Calm - N/A   Overcast
3:56 AM 48.2 °F 44.6 °F 87% 29.70 in 10.0 mi Calm Calm - N/A   Overcast
4:16 AM 48.2 °F 44.6 °F 87% 29.70 in 10.0 mi NW 3.5 mph - N/A   Mostly Cloudy
4:36 AM 48.2 °F 44.6 °F 87% 29.71 in 7.0 mi Calm Calm - N/A   Overcast
4:56 AM 48.2 °F 44.6 °F 87% 29.71 in 10.0 mi WSW 3.5 mph - N/A   Overcast
5:16 AM 48.2 °F 44.6 °F 87% 29.71 in 10.0 mi WSW 3.5 mph - N/A   Overcast
5:36 AM 48.2 °F 44.6 °F 87% 29.72 in 10.0 mi Calm Calm - N/A   Overcast
5:56 AM 48.2 °F 44.6 °F 87% 29.72 in 10.0 mi Calm Calm - N/A   Overcast
6:16 AM 48.2 °F 44.6 °F 87% 29.72 in 10.0 mi Calm Calm - N/A   Overcast
6:36 AM 48.2 °F 44.6 °F 87% 29.72 in 10.0 mi Calm Calm - N/A   Overcast
6:56 AM 48.2 °F 44.6 °F 87% 29.72 in 10.0 mi Calm Calm - N/A   Overcast
7:16 AM 48.2 °F 44.6 °F 87% 29.73 in 10.0 mi Calm Calm - N/A   Overcast
7:36 AM 48.2 °F 44.6 °F 87% 29.73 in 10.0 mi Calm Calm - N/A   Overcast
7:56 AM 48.2 °F 44.6 °F 87% 29.74 in 10.0 mi West 3.5 mph - N/A   Overcast
8:16 AM 48.2 °F 44.6 °F 87% 29.74 in 10.0 mi West 3.5 mph - N/A   Overcast
8:36 AM 48.2 °F 44.6 °F 87% 29.74 in 10.0 mi WSW 3.5 mph - 0.01 in   Overcast
8:56 AM 48.2 °F 44.6 °F 87% 29.74 in 10.0 mi Calm Calm - 0.01 in   Overcast
9:16 AM 48.2 °F 44.6 °F 87% 29.75 in 10.0 mi Calm Calm - N/A   Overcast
9:36 AM 48.2 °F 44.6 °F 87% 29.75 in 10.0 mi Calm Calm - N/A   Overcast
9:56 AM 48.2 °F 44.6 °F 87% 29.75 in 10.0 mi SW 5.8 mph - N/A   Overcast
10:16 AM 48.2 °F 44.6 °F 87% 29.76 in 10.0 mi SW 4.6 mph - N/A   Overcast
10:36 AM 50.0 °F 46.4 °F 87% 29.76 in 10.0 mi SW 3.5 mph - 0.01 in   Overcast
10:56 AM 50.0 °F 44.6 °F 82% 29.77 in 10.0 mi WSW 3.5 mph - 0.01 in   Overcast
11:16 AM 48.2 °F 44.6 °F 87% 29.77 in 10.0 mi WSW 3.5 mph - N/A   Overcast
11:36 AM 50.0 °F 44.6 °F 82% 29.77 in 10.0 mi SW 4.6 mph - N/A   Overcast
11:56 AM 50.0 °F 44.6 °F 82% 29.77 in 10.0 mi WSW 4.6 mph - N/A   Overcast
12:16 PM 50.0 °F 44.6 °F 82% 29.77 in 10.0 mi WSW 3.5 mph - N/A   Overcast
12:36 PM 50.0 °F 44.6 °F 82% 29.78 in 10.0 mi Calm Calm - N/A   Overcast
12:56 PM 51.8 °F 44.6 °F 76% 29.78 in 10.0 mi Calm Calm - N/A   Overcast
1:16 PM 51.8 °F 44.6 °F 76% 29.78 in 10.0 mi Calm Calm - N/A   Overcast
1:36 PM 51.8 °F 44.6 °F 76% 29.78 in 10.0 mi Calm Calm - N/A   Overcast
1:56 PM 51.8 °F 44.6 °F 76% 29.78 in 10.0 mi South 3.5 mph - N/A   Overcast
2:16 PM 51.8 °F 44.6 °F 76% 29.78 in 10.0 mi Calm Calm - N/A   Overcast
2:36 PM 51.8 °F 44.6 °F 76% 29.79 in 10.0 mi SSE 4.6 mph - N/A   Overcast
2:56 PM 53.6 °F 44.6 °F 72% 29.79 in 10.0 mi SSE 3.5 mph - N/A   Overcast
3:16 PM 51.8 °F 44.6 °F 76% 29.79 in 10.0 mi East 3.5 mph - N/A   Overcast
3:36 PM 53.6 °F 44.6 °F 72% 29.79 in 10.0 mi ESE 4.6 mph - N/A   Overcast
3:56 PM 53.6 °F 44.6 °F 72% 29.79 in 10.0 mi ESE 3.5 mph - N/A   Scattered Clouds
4:16 PM 55.4 °F 44.6 °F 67% 29.79 in 10.0 mi East 5.8 mph - N/A   Clear
4:36 PM 55.4 °F 42.8 °F 63% 29.78 in 10.0 mi East 5.8 mph - N/A   Clear
4:56 PM 57.2 °F 42.8 °F 59% 29.78 in 10.0 mi ENE 6.9 mph - N/A   Clear
5:16 PM 57.2 °F 42.8 °F 59% 29.78 in 10.0 mi ENE 5.8 mph - N/A   Clear
5:36 PM 57.2 °F 42.8 °F 59% 29.78 in 10.0 mi East 5.8 mph - N/A   Clear
5:56 PM 57.2 °F 42.8 °F 59% 29.78 in 10.0 mi East 3.5 mph - N/A   Partly Cloudy
6:16 PM 57.2 °F 42.8 °F 59% 29.78 in 10.0 mi East 5.8 mph - N/A   Clear
6:36 PM 57.2 °F 41.0 °F 55% 29.78 in 10.0 mi ESE 4.6 mph - N/A   Clear
6:56 PM 57.2 °F 41.0 °F 55% 29.78 in 10.0 mi East 3.5 mph - N/A   Clear
7:16 PM 57.2 °F 41.0 °F 55% 29.78 in 10.0 mi SE 5.8 mph - N/A   Clear
7:36 PM 57.2 °F 41.0 °F 55% 29.78 in 10.0 mi East 3.5 mph - N/A   Partly Cloudy
7:56 PM 57.2 °F 42.8 °F 59% 29.79 in 10.0 mi SE 3.5 mph - N/A   Clear
8:16 PM 57.2 °F 44.6 °F 63% 29.79 in 10.0 mi Calm Calm - N/A   Clear
8:36 PM 57.2 °F 44.6 °F 63% 29.79 in 10.0 mi Calm Calm - N/A   Clear
8:56 PM 57.2 °F 44.6 °F 63% 29.80 in 10.0 mi Calm Calm - N/A   Clear
9:16 PM 57.2 °F 46.4 °F 67% 29.80 in 10.0 mi Calm Calm - N/A   Mostly Cloudy
9:36 PM 55.4 °F 46.4 °F 72% 29.81 in 10.0 mi Calm Calm - N/A   Overcast
9:56 PM 55.4 °F 46.4 °F 72% 29.81 in 10.0 mi Calm Calm - N/A   Overcast
10:16 PM 55.4 °F 46.4 °F 72% 29.82 in 10.0 mi Calm Calm - N/A   Overcast
10:36 PM 55.4 °F 46.4 °F 72% 29.82 in 10.0 mi North 4.6 mph - N/A   Overcast
10:56 PM 53.6 °F 46.4 °F 77% 29.83 in 10.0 mi NE 4.6 mph - N/A   Overcast
11:16 PM 51.8 °F 46.4 °F 82% 29.83 in 10.0 mi Calm Calm - N/A   Overcast
11:36 PM 51.8 °F 46.4 °F 82% 29.84 in 10.0 mi Calm Calm - N/A   Overcast
11:56 PM 51.8 °F 46.4 °F 82% 29.84 in 10.0 mi Calm Calm - N/A   Overcast